TimeCST,TemperatureF,Dew PointF,Humidity,Sea Level PressureIn,VisibilityMPH,Wind Direction,Wind SpeedMPH,Gust SpeedMPH,PrecipitationIn,Events,Conditions,WindDirDegrees,DateUTC
12:53 AM,8.1,-0.0,70,30.63,10.0,SW,15.0,-,N/A,,Clear,220,2014-01-24 06:53:00
1:53 AM,9.0,1.0,70,30.57,10.0,SW,16.1,-,N/A,,Clear,220,2014-01-24 07:53:00
2:53 AM,9.0,1.9,73,30.55,10.0,SW,13.8,-,N/A,,Clear,220,2014-01-24 08:53:00
3:53 AM,10.0,3.0,73,30.50,10.0,SW,16.1,-,N/A,,Clear,220,2014-01-24 09:53:00
4:53 AM,12.0,3.9,70,30.46,10.0,SSW,19.6,-,N/A,,Clear,210,2014-01-24 10:53:00
5:53 AM,12.0,3.9,70,30.40,10.0,SSW,19.6,-,N/A,,Clear,210,2014-01-24 11:53:00
6:53 AM,12.0,5.0,73,30.37,10.0,SSW,20.7,-,N/A,,Clear,210,2014-01-24 12:53:00
7:53 AM,12.0,6.1,77,30.36,10.0,SW,17.3,-,N/A,,Clear,220,2014-01-24 13:53:00
8:53 AM,15.1,7.0,70,30.30,10.0,SSW,23.0,-,N/A,,Clear,210,2014-01-24 14:53:00
9:53 AM,24.1,10.0,55,30.26,10.0,SW,21.9,27.6,N/A,,Clear,230,2014-01-24 15:53:00
10:53 AM,30.9,10.9,43,30.23,10.0,WSW,17.3,-,N/A,,Clear,240,2014-01-24 16:53:00
11:53 AM,42.1,14.0,32,30.18,10.0,WSW,16.1,19.6,N/A,,Partly Cloudy,250,2014-01-24 17:53:00
12:53 PM,52.0,14.0,22,30.11,10.0,NW,15.0,-,N/A,,Overcast,320,2014-01-24 18:53:00
1:53 PM,54.0,15.1,22,30.06,10.0,WNW,12.7,-,N/A,,Clear,290,2014-01-24 19:53:00
2:53 PM,57.9,21.0,24,30.03,10.0,NW,20.7,25.3,N/A,,Clear,310,2014-01-24 20:53:00
3:53 PM,57.9,21.0,24,30.01,10.0,NW,20.7,-,N/A,,Scattered Clouds,310,2014-01-24 21:53:00
4:53 PM,55.9,23.0,28,30.00,10.0,NW,12.7,-,N/A,,Clear,310,2014-01-24 22:53:00
5:53 PM,51.1,21.9,32,30.00,10.0,WNW,8.1,-,N/A,,Clear,290,2014-01-24 23:53:00
6:53 PM,46.9,21.9,37,30.00,10.0,WSW,9.2,-,N/A,,Clear,250,2014-01-25 00:53:00
7:53 PM,48.0,23.0,37,30.00,10.0,WSW,10.4,-,N/A,,Clear,250,2014-01-25 01:53:00
8:53 PM,46.9,21.9,37,29.97,10.0,West,15.0,-,N/A,,Mostly Cloudy,260,2014-01-25 02:53:00
9:53 PM,42.1,21.9,45,29.97,10.0,West,11.5,-,N/A,,Partly Cloudy,270,2014-01-25 03:53:00
10:53 PM,39.0,21.9,50,29.96,10.0,West,12.7,-,N/A,,Clear,260,2014-01-25 04:53:00
11:53 PM,45.0,24.1,44,29.96,10.0,WNW,13.8,-,N/A,,Partly Cloudy,290,2014-01-25 05:53:00